sat.trackr.live / text

‹ back to catalog

ONEWEB-0315

NORAD 49101 · 2021-075AC

PAYLOAD ACTIVE UNKNOWN

§ Identity

Operator
Country
UK
Launch date
2021-08-21
Launch site
TYMSC
Launch vehicle
Mass (kg)
RCS (m²)

Purposes: comms

External: N2YO · Heavens-Above · Gunter

§ Orbital elements

Epoch: 2026-09-19T03:11:05.549568Z

Period
109.72 min
Inclination
87.8983°
Eccentricity
0.0002158
Mean motion
13.12442235 rev/d
Perigee alt
1,212.1 km
Apogee alt
1,215.4 km
Semi-major
7,591.9 km
B*
-4.1720e-4
RAAN
331.9972°
Arg perigee
106.6831°
Mean anomaly
253.4535°
Rev number
24,749

§ Raw data

ONEWEB-03151 49101U 21075AC  26262.13270312 -.00000137  00000+0 -41720-3 0  99962 49101  87.8983 331.9972 0002158 106.6831 253.4535 13.12442235247495

JSON: /api/v1/satellites/49101 · /tle

For live sub-satellite position, see the globe view (requires WebGL).

§ Visibility from observer

Set your observer location to see the next 7 days of passes ≥ 10°. The values pass through the URL so the page stays shareable.

No JS? Fill the form by hand. The geolocation button needs JavaScript.